sat.trackr.live / text

‹ back to catalog

STARLINK-4110

NORAD 53166 · 2022-083AL

PAYLOAD ACTIVE UNKNOWN

§ Identity

Operator
Country
US
Launch date
2022-07-17
Launch site
AFETR
Launch vehicle
Mass (kg)
RCS (m²)

Purposes: comms

External: N2YO · Heavens-Above · Gunter

§ Orbital elements

Epoch: 2026-09-20T04:00:03.000096Z

Period
93.68 min
Inclination
53.1605°
Eccentricity
0.0001007
Mean motion
15.37201161 rev/d
Perigee alt
453.7 km
Apogee alt
455.1 km
Semi-major
6,832.5 km
B*
2.5355e-3
RAAN
335.2493°
Arg perigee
101.2091°
Mean anomaly
79.3230°
Rev number
583

§ Raw data

STARLINK-41101 53166U 22083AL  26263.16670139  .00094509  00000+0  25355-2 0  99962 53166  53.1605 335.2493 0001007 101.2091  79.3230 15.37201161  5831

JSON: /api/v1/satellites/53166 · /tle

For live sub-satellite position, see the globe view (requires WebGL).

§ Visibility from observer

Set your observer location to see the next 7 days of passes ≥ 10°. The values pass through the URL so the page stays shareable.

No JS? Fill the form by hand. The geolocation button needs JavaScript.